Location: Hermaringen
(48.5952°N, 10.2585°E)
Time: 12:46:58
(UTC+00:00)

Altair - Pass Details

Date: 24 February 2026
Orbit: 1502 x 1682 km, 47.2° (Epoch: 17 March)

Event Time Altitude Azimuth Distance (km) Brightness Sun altitude
Rises 06:38:54 0° 282° (WNW) 4,658 9.3 3.7°
Reaches altitude 10° 06:41:55 10° 280° (W) 3,689 8.9 4.2°
Maximum altitude 06:51:09 71° 199° (SSW) 1,633 7.8 5.6°
Drops below altitude 10° 07:00:44 10° 118° (ESE) 3,813 12.6 7.1°
Sets 07:03:53 0° 116° (ESE) 4,821 12.7 7.5°
